Tracking 30923 objects as of 1-Jul-2025
HD Live streaming from Space Station
objects crossing your sky now

COSMOS 1855

Track COSMOS 1855 now!
10-day predictions
COSMOS 1855 is classified as:


NORAD ID: 18116
Int'l Code: 1987-051D
Perigee: 1,453.5 km
Apogee: 1,483.7 km
Inclination: 74.0 °
Period: 115.1 minutes
Semi major axis: 7839 km
RCS: 0.6844 m2 (medium)
Launch date: June 16, 1987
Source: Commonwealth of Independent States (former USSR) (CIS)
Launch site: PLESETSK MISSILE AND SPACE COMPLEX (PKMTR)
Your satellite tracking list
Your tracking list is empty




NASA's NSSDC Master Catalog

Two Line Element Set (TLE):
1 18116U 87051D   25181.61091977 -.00000020  00000-0 -28790-4 0  9999
2 18116  74.0047  26.4017 0019309 122.5333 294.0431 12.50726384736852
Source of the keplerian elements: AFSPC